Regional Weather Roundup
Issued by NWS Goodland, KS

Home | Current Version | Previous Version | Text Only | Print | Product List | Glossary Off
Versions: 1 2 3 4 5 6 7 8 9 10 11 12 13 14 15 16 17 18 19 20 21 22 23 24 25 26 27 28 29 30 31 32 33 34 35 36 37 38 39 40 41 42 43 44 45 46 47 48 49 50

000
ASUS43 KGLD 260759
RWRGLD

GOODLAND FORECAST AREA HOURLY WEATHER ROUNDUP
NATIONAL WEATHER SERVICE GOODLAND KS
100 AM MST MON JAN 26 2015

...OFFICIAL OBSERVATIONS...

CITY           SKY/WX    TMP DP  RH WIND       PRES   REMARKS
GOODLAND KS    CLEAR     39  30  70 W16       30.11F
HILL CITY KS   CLEAR     35  25  66 W9        30.05F
IMPERIAL NEB   CLEAR     41  30  65 NW14      30.06S
MCCOOK NEB     PTCLDY    35  29  78 W13       30.03F
AKRON CO       PTCLDY    36  28  73 W13       30.15F
BURLINGTON CO  PTCLDY    37  29  72 W12       30.14S
LIMON CO       PTCLDY    33  26  75 VRB5      30.20S
$$

...UNOFFICIAL OBSERVATIONS...

CITY           SKY/WX    TMP DP  RH WIND       PRES   REMARKS
COLBY KS       CLEAR     37  34  87 W14       30.09S
GOVE KS          N/A     35  32  89 MISG        N/A
NORTON KS      CLEAR     34  25  69 SW10      30.02F
SHARON SPRINGS   N/A     35  30  83 W9          N/A
KIT CARSON CO    N/A     34  27  75 MISG        N/A
YUMA CO          N/A     37  29  74 W17         N/A
$$



USA.gov is the U.S. government's official web portal to all federal, state and local government web resources and services.